Location: ??????????
(54.8537°N, 38.8755°E)
Time: 23:26:57
(UTC+00:00)

Tiros 1 despin weight - Pass Details

Date: 18 September 2024
Orbit: 572 x 613 km, 48.2° (Epoch: 13 October)

Event Time Altitude Azimuth Distance (km) Brightness Sun altitude
Rises 04:22:10 0° 270° (W) 2,885 ? 10.5°
Reaches altitude 10° 04:24:54 10° 255° (WSW) 1,978 ? 10.8°
Maximum altitude 04:28:20 22° 205° (SSW) 1,372 ? 11.3°
Drops below altitude 10° 04:31:47 10° 156° (SSE) 1,969 ? 11.8°
Sets 04:34:29 0° 141° (SE) 2,868 ? 12.2°
